铱星星座 114星 (IRIDIUM 114)

导读

IRIDIUM 114是美国铱星通信公司运营的第二代铱星系统(Iridium Next)通信卫星,于北京时间2017年1月14日发射升空,运行在近地极地低轨道,依托铱星星座全球覆盖设计,为航空、航海、军事及应急场景提供可靠的全球语音与数据通信服务。作为新一代替换卫星,它提升了系统传输速率与稳定性,支撑物联网跨区域连接和偏远地区通信保障,延续铱星系统抗干扰、全天候服务的优势,至今仍在星座中协同组网。

基本信息
目录编号:
41923
目录名称:
IRIDIUM 114
国际标识:
2017-003G
轨道中心:
EARTH
卫星名称:
铱星星座 114星
卫星全名:
铱星星座 114星 (IRIDIUM 114)
卫星状态:
在轨 (已飞行3436 天)
发射日期:
2017-01-14 UTC
国别 :
美国 (US)
星等 :
--
轨道信息
数据来源 国际轨道数据 AOE轨道数据
星历时间 2026-06-12T14:17:54+0800
13小时前
查看轨道信息
2026-06-12T03:00:00+0800
1天前
查看轨道信息
半长轴 7155.805km 7155.796km
偏心率 0.0002267 0.0002439
轨道倾角 86.396° 86.395°
近地点辐角 81.310° 78.980°
升交点赤经 90.523° 90.721°
平近点角 278.835° 12.053°
近地点 776.045km 775.913km
远地点 779.291km 779.405km
周期 100.403分钟 100.403分钟
每日圈数 14.342175 14.342204
详细信息
平衡模式:
三轴稳定
覆盖范围:
全球
运营商:
铱星通信公司
运营商所在国:
美国
制造商(研发单位):
阿莱尼亚宇航公司
制造商所在国:
意大利
使用方式:
暂无
卫星简介
铱星(Iridium)是由共66个运作中的通信卫星组成的卫星通信系统。这个系统原本规划77个通信卫星,所以用原子序数为77的铱元素来命名。铱卫星允许人们使用手持型电子设备进行全球性的语音及数据通讯。该卫星仍在工作。
2D轨道图
3D轨道图
轨道高度分析图
轨道倾角分析图
轨道综合分析图
查看轨道综合分析图